This is the latest recevied weather packets stored in our database for station/object KI4MRC. If no packets are shown the sender has not sent any weather packets the latest 10 day(s).
| Time | Temp. | Humidity | Pressure | Rain* | Wind** | Luminosity | Snow |
|---|---|---|---|---|---|---|---|
| 1777299915 | 28.89° C | 70% | 1015.1 hPa | 0 mm | - | 683 W/m² | - |
| 1777299612 | 28.89° C | 71% | 1014.9 hPa | 0 mm | - | 658 W/m² | - |
| 1777299310 | 28.89° C | 69% | 1015 hPa | 0 mm | - | 639 W/m² | - |
| 1777299007 | 28.33° C | 70% | 1014.9 hPa | 0 mm | - | 619 W/m² | - |
| 1777298705 | 27.78° C | 73% | 1014.8 hPa | 0 mm | - | 597 W/m² | - |
| 1777298401 | 27.78° C | 74% | 1014.8 hPa | 0 mm | - | 579 W/m² | - |
| 1777298097 | 27.78° C | 74% | 1014.6 hPa | 0 mm | - | 560 W/m² | - |
| 1777297796 | 27.78° C | 76% | 1014.6 hPa | 0 mm | - | 540 W/m² | - |
| 1777297495 | 27.78° C | 74% | 1014.6 hPa | 0 mm | - | 521 W/m² | - |
| 1777297192 | 27.22° C | 76% | 1014.7 hPa | 0 mm | - | 496 W/m² | - |
| 1777296889 | 26.67° C | 79% | 1014.5 hPa | 0 mm | - | 477 W/m² | - |
| 1777296585 | 26.11° C | 81% | 1014.6 hPa | 0 mm | - | 451 W/m² | - |
| 1777296251 | 25.56° C | 80% | 1014.4 hPa | 0 mm | - | 441 W/m² | - |
| 1777295946 | 25.56° C | 82% | 1014.6 hPa | 0 mm | - | 422 W/m² | - |
| 1777295644 | 25.56° C | 84% | 1014.5 hPa | 0 mm | - | 405 W/m² | - |
| 1777295341 | 25° C | 84% | 1014.4 hPa | 0 mm | - | 383 W/m² | - |
| 1777295039 | 24.44° C | 87% | 1014.4 hPa | 0 mm | - | 361 W/m² | - |
| 1777294736 | 24.44° C | 91% | 1014.3 hPa | 0 mm | - | 341 W/m² | - |
| 1777294430 | 23.89° C | 95% | 1014.4 hPa | 0 mm | - | 319 W/m² | - |
| 1777294128 | 23.33° C | 96% | 1014.3 hPa | 0 mm | - | 298 W/m² | - |
| 1777293825 | 22.78° C | 98% | 1014.4 hPa | 0 mm | - | 279 W/m² | - |
| 1777293525 | 22.22° C | 98% | 1014.3 hPa | 0 mm | - | 100 W/m² | - |
| 1777293221 | 21.67° C | 99% | 1014.3 hPa | 0 mm | - | 77 W/m² | - |
| 1777292920 | 21.67° C | 99% | 1014.3 hPa | 0 mm | - | 149 W/m² | - |
| 1777292616 | 21.11° C | 99% | 1014.2 hPa | 0 mm | - | 56 W/m² | - |
* Rain latest hour (hover to see other rain measurements)
** Current wind speed in m/s (hover to see current wind gust speed)